Weather History for Plymouth, MA

Change the Weather History Date:

Saturday, February 1, 2014

  Actual Average Record
Temperature  
Mean Temperature 36 °F -  
Max Temperature 43 °F 37 °F 58 °F (1988)
Min Temperature 30 °F 17 °F 0 °F (1971)
Degree Days  
Heating Degree Days 28    
Moisture  
Dew Point 21 °F    
Average Humidity 56    
Maximum Humidity 79    
Minimum Humidity 38    
Precipitation  
Precipitation 0.00 in - - ()
Sea Level Pressure  
Sea Level Pressure 30.25 in    
Wind  
Wind Speed 3 mph (SSW)    
Max Wind Speed 8 mph    
Max Gust Speed -    
Visibility 10 miles    
Events      
Averages and records for this station are not official NWS values.
T = Trace of Precipitation, MM = Missing Value Source: NWS Daily Summary

Daily Weather History Graph

Daily Weather History Graph

Search for Another Location

Airport:

Trip Planner

Search our weather history database for the weather conditions in past years. The results will help you decide how hot, cold, wet, or windy it might be!

Date:

Astronomy

Feb. 01, 2014 Rise Set
Actual Time 6:55 AM EST 4:58 PM EST
Civil Twilight 6:25 AM EST 5:27 PM EST
Nautical Twilight 5:52 AM EST 6:00 PM EST
Astronomical Twilight 5:19 AM EST 6:33 PM EST
Moon 7:40 AM EST (2/1) 7:32 PM EST (2/1)
Length of Visible Light 11h 01m
Length of Day
10h 02m
Waxing Crescent, 5% of the Moon is Illuminated
Feb 1
Waxing Crescent
Feb 6
First Quarter
Feb 14
Full
Feb 22
Last Quarter
Mar 1
New

Hourly Weather History & Observations

Time (EST) Temp. Windchill Dew Point Humidity Pressure Visibility Wind Dir Wind Speed Gust Speed Precip Events Conditions
12:52 AM 34.0 °F 31.0 °F 19.0 °F 54% 30.23 in 10.0 mi SW 3.5 mph - N/A   Overcast
1:52 AM 32.0 °F - 19.0 °F 59% 30.24 in 10.0 mi Calm Calm - N/A   Mostly Cloudy
2:52 AM 33.1 °F 28.7 °F 19.0 °F 56% 30.25 in 10.0 mi WNW 4.6 mph - N/A   Overcast
3:52 AM 33.1 °F 30.0 °F 19.0 °F 56% 30.26 in 10.0 mi WNW 3.5 mph - N/A   Mostly Cloudy
4:52 AM 33.1 °F 30.0 °F 19.0 °F 56% 30.27 in 10.0 mi WNW 3.5 mph - N/A   Mostly Cloudy
5:52 AM 30.9 °F - 19.9 °F 64% 30.28 in 10.0 mi Calm Calm - N/A   Scattered Clouds
6:52 AM 30.9 °F - 19.9 °F 64% 30.32 in 10.0 mi Calm Calm - N/A   Overcast
7:52 AM 30.9 °F - 21.0 °F 67% 30.35 in 10.0 mi Calm Calm - N/A   Mostly Cloudy
8:52 AM 37.9 °F - 19.0 °F 47% 30.35 in 10.0 mi Calm Calm - N/A   Clear
9:52 AM 41.0 °F - 19.0 °F 41% 30.35 in 10.0 mi Calm Calm - N/A   Clear
10:52 AM 41.0 °F 37.1 °F 18.0 °F 40% 30.34 in 10.0 mi SSE 5.8 mph - N/A   Clear
11:52 AM 43.0 °F 39.5 °F 19.9 °F 40% 30.31 in 10.0 mi SSW 5.8 mph - N/A   Clear
12:52 PM 42.1 °F 37.1 °F 18.0 °F 38% 30.30 in 10.0 mi South 8.1 mph - N/A   Clear
1:52 PM 42.1 °F 37.7 °F 19.0 °F 40% 30.28 in 10.0 mi South 6.9 mph - N/A   Clear
2:52 PM 39.9 °F 35.1 °F 19.0 °F 43% 30.27 in 10.0 mi South 6.9 mph - N/A   Clear
3:52 PM 39.0 °F 34.8 °F 19.9 °F 46% 30.27 in 10.0 mi South 5.8 mph - N/A   Clear
4:52 PM 37.0 °F 32.4 °F 19.9 °F 50% 30.25 in 10.0 mi South 5.8 mph - N/A   Clear
5:52 PM 36.0 °F 31.1 °F 21.0 °F 55% 30.23 in 10.0 mi South 5.8 mph - N/A   Clear
6:52 PM 35.1 °F 32.2 °F 21.0 °F 57% 30.24 in 10.0 mi South 3.5 mph - N/A   Clear
7:52 PM 30.9 °F - 21.9 °F 69% 30.21 in 10.0 mi Calm Calm - N/A   Clear
8:52 PM 32.0 °F - 24.1 °F 73% 30.18 in 10.0 mi Calm Calm - N/A   Clear
9:52 PM 33.1 °F - 25.0 °F 72% 30.13 in 10.0 mi Calm Calm - N/A   Clear
10:52 PM 33.1 °F 28.7 °F 27.0 °F 78% 30.09 in 10.0 mi South 4.6 mph - N/A   Clear
11:52 PM 34.0 °F 31.0 °F 28.0 °F 79% 30.05 in 10.0 mi South 3.5 mph - N/A   Scattered Clouds